Time,TemperatureF,DewpointF,PressureIn,WindDirection,WindDirectionDegrees,WindSpeedMPH,WindSpeedGustMPH,Humidity,HourlyPrecipIn,Conditions,Clouds,dailyrainin,SoftwareType,DateUTC
2013-03-13 00:02:00,30.4,-8.5,27.17,North,0,0.0,0.0,18,0.00,NA,NA,-99.99,wxupload 3.5,2013-03-13 04:02:00,
2013-03-13 00:03:00,30.4,-8.5,27.17,North,0,0.0,0.0,18,0.00,NA,NA,-99.99,wxupload 3.5,2013-03-13 04:03:00,
2013-03-13 00:07:00,30.4,-8.5,27.17,North,0,0.0,0.0,18,0.00,NA,NA,-99.99,wxupload 3.5,2013-03-13 04:07:00,
2013-03-13 00:14:00,30.4,-8.5,27.17,North,0,0.0,0.0,18,0.00,NA,NA,-99.99,wxupload 3.5,2013-03-13 04:14:00,
2013-03-13 00:20:00,30.6,-8.4,27.17,North,0,0.0,0.0,18,0.00,NA,NA,-99.99,wxupload 3.5,2013-03-13 04:20:00,
2013-03-13 00:22:00,30.6,-8.4,27.17,North,0,0.0,0.0,18,0.00,NA,NA,-99.99,wxupload 3.5,2013-03-13 04:22:00,
2013-03-13 00:28:00,30.6,-8.4,27.17,North,0,0.0,0.0,18,0.00,NA,NA,-99.99,wxupload 3.5,2013-03-13 04:28:00,
2013-03-13 00:33:00,30.6,-8.4,27.17,North,0,0.0,0.0,18,0.00,NA,NA,-99.99,wxupload 3.5,2013-03-13 04:33:00,
2013-03-13 00:40:00,30.6,-8.4,27.17,North,0,0.0,0.0,18,0.00,NA,NA,-99.99,wxupload 3.5,2013-03-13 04:40:00,
2013-03-13 00:46:00,30.7,-8.2,27.17,North,0,0.0,0.0,18,0.00,NA,NA,-99.99,wxupload 3.5,2013-03-13 04:46:00,
2013-03-13 00:52:00,30.7,-8.2,27.17,North,0,0.0,0.0,18,0.00,NA,NA,-99.99,wxupload 3.5,2013-03-13 04:52:00,
2013-03-13 00:58:00,30.9,-8.0,27.17,North,0,0.0,0.0,18,0.00,NA,NA,-99.99,wxupload 3.5,2013-03-13 04:58:00,
2013-03-13 01:03:00,30.9,-8.0,27.17,North,0,0.0,0.0,18,0.00,NA,NA,-99.99,wxupload 3.5,2013-03-13 05:03:00,
2013-03-13 01:10:00,30.9,-8.0,27.17,North,0,0.0,0.0,18,0.00,NA,NA,-99.99,wxupload 3.5,2013-03-13 05:10:00,
2013-03-13 01:16:00,31.1,-7.9,27.17,North,0,0.0,0.0,18,0.00,NA,NA,-99.99,wxupload 3.5,2013-03-13 05:16:00,
2013-03-13 01:22:00,31.1,-7.9,27.17,North,0,0.0,0.0,18,0.00,NA,NA,-99.99,wxupload 3.5,2013-03-13 05:22:00,
2013-03-13 01:28:00,31.1,-7.9,27.17,North,0,0.0,0.0,18,0.00,NA,NA,-99.99,wxupload 3.5,2013-03-13 05:28:00,
2013-03-13 01:33:00,31.1,-7.9,27.17,North,0,0.0,0.0,18,0.00,NA,NA,-99.99,wxupload 3.5,2013-03-13 05:33:00,
2013-03-13 01:40:00,31.3,-7.7,27.17,North,0,0.0,0.0,18,0.00,NA,NA,-99.99,wxupload 3.5,2013-03-13 05:40:00,
2013-03-13 01:46:00,31.3,-7.7,27.17,North,0,0.0,0.0,18,0.00,NA,NA,-99.99,wxupload 3.5,2013-03-13 05:46:00,
2013-03-13 01:51:00,31.3,-7.7,27.17,North,0,0.0,0.0,18,0.00,NA,NA,-99.99,wxupload 3.5,2013-03-13 05:51:00,
2013-03-13 01:58:00,31.1,-7.9,27.17,North,0,0.0,0.0,18,0.00,NA,NA,-99.99,wxupload 3.5,2013-03-13 05:58:00,
2013-03-13 02:03:00,30.7,-8.2,27.17,North,0,0.0,0.0,18,0.00,NA,NA,-99.99,wxupload 3.5,2013-03-13 06:03:00,
2013-03-13 02:10:00,30.6,-8.4,27.17,North,0,0.0,0.0,18,0.00,NA,NA,-99.99,wxupload 3.5,2013-03-13 06:10:00,
2013-03-13 02:16:00,30.2,-8.7,27.17,North,0,0.0,0.0,18,0.00,NA,NA,-99.99,wxupload 3.5,2013-03-13 06:16:00,
2013-03-13 02:21:00,30.0,-8.8,27.17,North,0,0.0,0.0,18,0.00,NA,NA,-99.99,wxupload 3.5,2013-03-13 06:21:00,
2013-03-13 02:28:00,30.0,-8.8,27.17,North,0,0.0,0.0,18,0.00,NA,NA,-99.99,wxupload 3.5,2013-03-13 06:28:00,
2013-03-13 02:34:00,29.8,-9.0,27.17,North,0,0.0,0.0,18,0.00,NA,NA,-99.99,wxupload 3.5,2013-03-13 06:34:00,
2013-03-13 02:40:00,29.7,-9.1,27.17,North,0,0.0,0.0,18,0.00,NA,NA,-99.99,wxupload 3.5,2013-03-13 06:40:00,
2013-03-13 02:46:00,29.5,-9.3,27.17,North,0,0.0,0.0,18,0.00,NA,NA,-99.99,wxupload 3.5,2013-03-13 06:46:00,
2013-03-13 02:51:00,29.5,-9.3,27.17,North,0,0.0,0.0,18,0.00,NA,NA,-99.99,wxupload 3.5,2013-03-13 06:51:00,
2013-03-13 02:58:00,29.5,-9.3,27.17,North,0,0.0,0.0,18,0.00,NA,NA,-99.99,wxupload 3.5,2013-03-13 06:58:00,
2013-03-13 03:04:00,29.3,-9.4,27.17,North,0,0.0,0.0,18,0.00,NA,NA,-99.99,wxupload 3.5,2013-03-13 07:04:00,
2013-03-13 03:10:00,29.3,-9.4,27.17,North,0,0.0,0.0,18,0.00,NA,NA,-99.99,wxupload 3.5,2013-03-13 07:10:00,
2013-03-13 03:16:00,29.1,-9.6,27.17,North,0,0.0,0.0,18,0.00,NA,NA,-99.99,wxupload 3.5,2013-03-13 07:16:00,
2013-03-13 03:21:00,29.1,-9.6,27.17,North,0,0.0,0.0,18,0.00,NA,NA,-99.99,wxupload 3.5,2013-03-13 07:21:00,
2013-03-13 03:28:00,29.1,-9.6,27.17,North,0,0.0,0.0,18,0.00,NA,NA,-99.99,wxupload 3.5,2013-03-13 07:28:00,
2013-03-13 03:34:00,29.1,-9.6,27.17,North,0,0.0,0.0,18,0.00,NA,NA,-99.99,wxupload 3.5,2013-03-13 07:34:00,
2013-03-13 03:40:00,28.9,-9.7,27.17,North,0,0.0,0.0,18,0.00,NA,NA,-99.99,wxupload 3.5,2013-03-13 07:40:00,
2013-03-13 03:47:00,28.9,-9.7,27.17,North,0,0.0,0.0,18,0.00,NA,NA,-99.99,wxupload 3.5,2013-03-13 07:47:00,
2013-03-13 03:54:00,28.8,-9.9,27.17,North,0,0.0,0.0,18,0.00,NA,NA,-99.99,wxupload 3.5,2013-03-13 07:54:00,
2013-03-13 04:00:00,28.8,-9.9,27.17,North,0,0.0,0.0,18,0.00,NA,NA,-99.99,wxupload 3.5,2013-03-13 08:00:00,
2013-03-13 04:08:00,28.6,-10.0,27.17,North,0,0.0,0.0,18,0.00,NA,NA,-99.99,wxupload 3.5,2013-03-13 08:08:00,
2013-03-13 04:13:00,28.6,-10.0,27.17,North,0,0.0,0.0,18,0.00,NA,NA,-99.99,wxupload 3.5,2013-03-13 08:13:00,
2013-03-13 04:20:00,28.6,-10.0,27.17,North,0,0.0,0.0,18,0.00,NA,NA,-99.99,wxupload 3.5,2013-03-13 08:20:00,
2013-03-13 04:26:00,28.6,-10.0,27.17,North,0,0.0,0.0,18,0.00,NA,NA,-99.99,wxupload 3.5,2013-03-13 08:26:00,
2013-03-13 04:32:00,28.4,-10.2,27.17,North,0,0.0,0.0,18,0.00,NA,NA,-99.99,wxupload 3.5,2013-03-13 08:32:00,
2013-03-13 04:38:00,28.4,-10.2,27.17,North,0,0.0,0.0,18,0.00,NA,NA,-99.99,wxupload 3.5,2013-03-13 08:38:00,
2013-03-13 04:43:00,28.4,-10.2,27.17,North,0,0.0,0.0,18,0.00,NA,NA,-99.99,wxupload 3.5,2013-03-13 08:43:00,
2013-03-13 04:50:00,28.2,-10.3,27.17,North,0,0.0,0.0,18,0.00,NA,NA,-99.99,wxupload 3.5,2013-03-13 08:50:00,
2013-03-13 04:56:00,28.0,-10.5,27.17,North,0,0.0,0.0,18,0.00,NA,NA,-99.99,wxupload 3.5,2013-03-13 08:56:00,
2013-03-13 05:02:00,28.2,-10.3,27.17,North,0,0.0,0.0,18,0.00,NA,NA,-99.99,wxupload 3.5,2013-03-13 09:02:00,
2013-03-13 05:08:00,28.4,-10.2,27.17,North,0,0.0,0.0,18,0.00,NA,NA,-99.99,wxupload 3.5,2013-03-13 09:08:00,
2013-03-13 05:14:00,28.6,-10.0,27.17,North,0,0.0,0.0,18,0.00,NA,NA,-99.99,wxupload 3.5,2013-03-13 09:14:00,
2013-03-13 05:20:00,28.6,-10.0,27.17,North,0,0.0,0.0,18,0.00,NA,NA,-99.99,wxupload 3.5,2013-03-13 09:20:00,
2013-03-13 05:26:00,28.6,-10.0,27.17,North,0,0.0,0.0,18,0.00,NA,NA,-99.99,wxupload 3.5,2013-03-13 09:26:00,
2013-03-13 05:31:00,28.6,-10.0,27.17,North,0,0.0,0.0,18,0.00,NA,NA,-99.99,wxupload 3.5,2013-03-13 09:31:00,
2013-03-13 05:38:00,28.6,-10.0,27.17,North,0,0.0,0.0,18,0.00,NA,NA,-99.99,wxupload 3.5,2013-03-13 09:38:00,
2013-03-13 05:44:00,28.9,-9.7,27.17,North,0,0.0,0.0,18,0.00,NA,NA,-99.99,wxupload 3.5,2013-03-13 09:44:00,
2013-03-13 05:50:00,28.8,-9.9,27.17,North,0,0.0,0.0,18,0.00,NA,NA,-99.99,wxupload 3.5,2013-03-13 09:50:00,
2013-03-13 05:56:00,28.8,-9.9,27.17,North,0,0.0,0.0,18,0.00,NA,NA,-99.99,wxupload 3.5,2013-03-13 09:56:00,
2013-03-13 06:01:00,28.9,-9.7,27.17,North,0,0.0,0.0,18,0.00,NA,NA,-99.99,wxupload 3.5,2013-03-13 10:01:00,
2013-03-13 06:08:00,29.5,-9.3,27.17,North,0,0.0,0.0,18,0.00,NA,NA,-99.99,wxupload 3.5,2013-03-13 10:08:00,
2013-03-13 06:14:00,29.5,-9.3,27.17,North,0,0.0,0.0,18,0.00,NA,NA,-99.99,wxupload 3.5,2013-03-13 10:14:00,
2013-03-13 06:19:00,29.5,-9.3,27.17,North,0,0.0,0.0,18,0.00,NA,NA,-99.99,wxupload 3.5,2013-03-13 10:19:00,
2013-03-13 06:27:00,29.5,-7.1,27.17,North,0,0.0,0.0,20,0.00,NA,NA,-99.99,wxupload 3.5,2013-03-13 10:27:00,
2013-03-13 06:34:00,29.5,-9.3,27.17,North,0,0.0,0.0,18,0.00,NA,NA,-99.99,wxupload 3.5,2013-03-13 10:34:00,
2013-03-13 06:40:00,29.3,-7.2,27.17,North,0,0.0,0.0,20,0.00,NA,NA,-99.99,wxupload 3.5,2013-03-13 10:40:00,
2013-03-13 06:45:00,29.5,-9.3,27.17,North,0,0.0,0.0,18,0.00,NA,NA,-99.99,wxupload 3.5,2013-03-13 10:45:00,
2013-03-13 06:52:00,29.7,-6.9,27.17,North,0,0.0,0.0,20,0.00,NA,NA,-99.99,wxupload 3.5,2013-03-13 10:52:00,
2013-03-13 06:57:00,29.8,-6.8,27.17,North,0,0.0,0.0,20,0.00,NA,NA,-99.99,wxupload 3.5,2013-03-13 10:57:00,
2013-03-13 07:04:00,29.5,-7.1,27.17,North,0,0.0,0.0,20,0.00,NA,NA,-99.99,wxupload 3.5,2013-03-13 11:04:00,
2013-03-13 07:10:00,29.3,-7.2,27.17,North,0,0.0,0.0,20,0.00,NA,NA,-99.99,wxupload 3.5,2013-03-13 11:10:00,
2013-03-13 07:15:00,29.1,-7.4,27.17,North,0,0.0,0.0,20,0.00,NA,NA,-99.99,wxupload 3.5,2013-03-13 11:15:00,
2013-03-13 07:22:00,28.9,-7.5,27.17,North,0,0.0,0.0,20,0.00,NA,NA,-99.99,wxupload 3.5,2013-03-13 11:22:00,
2013-03-13 07:28:00,28.9,-7.5,27.17,North,0,0.0,0.0,20,0.00,NA,NA,-99.99,wxupload 3.5,2013-03-13 11:28:00,
2013-03-13 07:34:00,28.9,-7.5,27.17,North,0,0.0,0.0,20,0.00,NA,NA,-99.99,wxupload 3.5,2013-03-13 11:34:00,
2013-03-13 07:40:00,28.9,-7.5,27.17,North,0,0.0,0.0,20,0.00,NA,NA,-99.99,wxupload 3.5,2013-03-13 11:40:00,
2013-03-13 07:45:00,28.9,-7.5,27.17,North,0,0.0,0.0,20,0.00,NA,NA,-99.99,wxupload 3.5,2013-03-13 11:45:00,
2013-03-13 07:52:00,28.9,-4.6,27.17,North,0,0.0,0.0,23,0.00,NA,NA,-99.99,wxupload 3.5,2013-03-13 11:52:00,
2013-03-13 07:58:00,28.9,-4.6,27.17,North,0,0.0,0.0,23,0.00,NA,NA,-99.99,wxupload 3.5,2013-03-13 11:58:00,
2013-03-13 08:03:00,29.1,-4.4,27.17,North,0,0.0,0.0,23,0.00,NA,NA,-99.99,wxupload 3.5,2013-03-13 12:03:00,
2013-03-13 08:10:00,29.1,-4.4,27.17,North,0,0.0,0.0,23,0.00,NA,NA,-99.99,wxupload 3.5,2013-03-13 12:10:00,
2013-03-13 08:16:00,29.5,-2.3,27.17,North,0,0.0,0.0,25,0.00,NA,NA,-99.99,wxupload 3.5,2013-03-13 12:16:00,
2013-03-13 08:22:00,29.5,-2.3,27.17,North,0,0.0,0.0,25,0.00,NA,NA,-99.99,wxupload 3.5,2013-03-13 12:22:00,
2013-03-13 08:28:00,29.7,-4.0,27.17,North,0,0.0,0.0,23,0.00,NA,NA,-99.99,wxupload 3.5,2013-03-13 12:28:00,
2013-03-13 08:33:00,30.0,-3.6,27.17,North,0,0.0,0.0,23,0.00,NA,NA,-99.99,wxupload 3.5,2013-03-13 12:33:00,
2013-03-13 08:40:00,30.2,-6.4,27.17,North,0,0.0,0.0,20,0.00,NA,NA,-99.99,wxupload 3.5,2013-03-13 12:40:00,
2013-03-13 08:46:00,30.7,-6.0,27.17,North,0,0.0,0.0,20,0.00,NA,NA,-99.99,wxupload 3.5,2013-03-13 12:46:00,
2013-03-13 08:52:00,31.1,-5.7,27.17,North,0,0.0,0.0,20,0.00,NA,NA,-99.99,wxupload 3.5,2013-03-13 12:52:00,
2013-03-13 08:58:00,31.6,-5.2,27.17,North,0,0.0,0.0,20,0.00,NA,NA,-99.99,wxupload 3.5,2013-03-13 12:58:00,
2013-03-13 09:03:00,32.2,-4.8,27.17,North,0,0.0,0.0,20,0.00,NA,NA,-99.99,wxupload 3.5,2013-03-13 13:03:00,
2013-03-13 09:10:00,32.2,-7.0,27.17,North,0,0.0,0.0,18,0.00,NA,NA,-99.99,wxupload 3.5,2013-03-13 13:10:00,
2013-03-13 09:16:00,32.4,-6.8,27.17,North,0,0.0,0.0,18,0.00,NA,NA,-99.99,wxupload 3.5,2013-03-13 13:16:00,
2013-03-13 09:21:00,32.5,-6.7,27.17,North,0,0.0,0.0,18,0.00,NA,NA,-99.99,wxupload 3.5,2013-03-13 13:21:00,
2013-03-13 09:28:00,32.7,-6.5,27.17,North,0,0.0,0.0,18,0.00,NA,NA,-99.99,wxupload 3.5,2013-03-13 13:28:00,
2013-03-13 09:34:00,33.1,-6.2,27.17,North,0,0.0,0.0,18,0.00,NA,NA,-99.99,wxupload 3.5,2013-03-13 13:34:00,
2013-03-13 09:40:00,33.3,-6.1,27.17,North,0,0.0,0.0,18,0.00,NA,NA,-99.99,wxupload 3.5,2013-03-13 13:40:00,
2013-03-13 09:46:00,33.4,-5.9,27.17,North,0,0.0,0.0,18,0.00,NA,NA,-99.99,wxupload 3.5,2013-03-13 13:46:00,
2013-03-13 09:51:00,33.6,-5.8,27.17,North,0,0.0,0.0,18,0.00,NA,NA,-99.99,wxupload 3.5,2013-03-13 13:51:00,
2013-03-13 09:58:00,34.3,-6.4,27.17,North,0,0.0,0.0,17,0.00,NA,NA,-99.99,wxupload 3.5,2013-03-13 13:58:00,
2013-03-13 10:04:00,34.5,-6.2,27.17,North,0,0.0,0.0,17,0.00,NA,NA,-99.99,wxupload 3.5,2013-03-13 14:04:00,
2013-03-13 10:09:00,34.3,-6.4,27.17,North,0,0.0,0.0,17,0.00,NA,NA,-99.99,wxupload 3.5,2013-03-13 14:09:00,
2013-03-13 10:16:00,34.3,-6.4,27.17,North,0,0.0,0.0,17,0.00,NA,NA,-99.99,wxupload 3.5,2013-03-13 14:16:00,
2013-03-13 10:22:00,34.5,-6.2,27.17,North,0,0.0,0.0,17,0.00,NA,NA,-99.99,wxupload 3.5,2013-03-13 14:22:00,
2013-03-13 10:28:00,34.3,-6.4,27.17,North,0,0.0,0.0,17,0.00,NA,NA,-99.99,wxupload 3.5,2013-03-13 14:28:00,
2013-03-13 10:34:00,34.5,-6.2,27.17,North,0,0.0,0.0,17,0.00,NA,NA,-99.99,wxupload 3.5,2013-03-13 14:34:00,
2013-03-13 10:39:00,35.2,-5.6,27.17,North,0,0.0,0.0,17,0.00,NA,NA,-99.99,wxupload 3.5,2013-03-13 14:39:00,
2013-03-13 10:48:00,35.1,-5.8,27.17,North,0,0.0,0.0,17,0.00,NA,NA,-99.99,wxupload 3.5,2013-03-13 14:48:00,
2013-03-13 10:54:00,34.5,-6.2,27.17,North,0,0.0,0.0,17,0.00,NA,NA,-99.99,wxupload 3.5,2013-03-13 14:54:00,
2013-03-13 11:00:00,35.2,-5.6,27.17,North,0,0.0,0.0,17,0.00,NA,NA,-99.99,wxupload 3.5,2013-03-13 15:00:00,
2013-03-13 11:05:00,36.0,-5.0,27.17,North,0,0.0,0.0,17,0.00,NA,NA,-99.99,wxupload 3.5,2013-03-13 15:05:00,
2013-03-13 11:12:00,38.1,-4.5,27.17,North,0,0.0,0.0,16,0.00,NA,NA,-99.99,wxupload 3.5,2013-03-13 15:12:00,
2013-03-13 11:18:00,38.7,-4.0,27.17,North,0,0.0,0.0,16,0.00,NA,NA,-99.99,wxupload 3.5,2013-03-13 15:18:00,
2013-03-13 11:23:00,38.1,-4.5,27.17,North,0,0.0,0.0,16,0.00,NA,NA,-99.99,wxupload 3.5,2013-03-13 15:23:00,
2013-03-13 11:30:00,38.1,-4.5,27.17,North,0,0.0,0.0,16,0.00,NA,NA,-99.99,wxupload 3.5,2013-03-13 15:30:00,
2013-03-13 11:36:00,38.8,-3.9,27.17,North,0,0.0,0.0,16,0.00,NA,NA,-99.99,wxupload 3.5,2013-03-13 15:36:00,
2013-03-13 11:42:00,38.8,-3.9,27.17,North,0,0.0,0.0,16,0.00,NA,NA,-99.99,wxupload 3.5,2013-03-13 15:42:00,
2013-03-13 11:48:00,39.0,-3.7,27.17,North,0,0.0,0.0,16,0.00,NA,NA,-99.99,wxupload 3.5,2013-03-13 15:48:00,
2013-03-13 11:53:00,38.7,-4.0,27.17,North,0,0.0,0.0,16,0.00,NA,NA,-99.99,wxupload 3.5,2013-03-13 15:53:00,
2013-03-13 12:00:00,37.9,-4.6,27.17,North,0,0.0,0.0,16,0.00,NA,NA,-99.99,wxupload 3.5,2013-03-13 16:00:00,
2013-03-13 12:06:00,37.9,-4.6,27.17,North,0,0.0,0.0,16,0.00,NA,NA,-99.99,wxupload 3.5,2013-03-13 16:06:00,
2013-03-13 12:12:00,37.6,-4.9,27.17,North,0,0.0,0.0,16,0.00,NA,NA,-99.99,wxupload 3.5,2013-03-13 16:12:00,
2013-03-13 12:18:00,37.8,-4.8,27.17,North,0,0.0,0.0,16,0.00,NA,NA,-99.99,wxupload 3.5,2013-03-13 16:18:00,
2013-03-13 12:23:00,37.8,-4.8,27.17,North,0,0.0,0.0,16,0.00,NA,NA,-99.99,wxupload 3.5,2013-03-13 16:23:00,
2013-03-13 12:30:00,37.6,-4.9,27.17,North,0,0.0,0.0,16,0.00,NA,NA,-99.99,wxupload 3.5,2013-03-13 16:30:00,
2013-03-13 12:36:00,37.2,-3.9,27.17,North,0,0.0,0.0,17,0.00,NA,NA,-99.99,wxupload 3.5,2013-03-13 16:36:00,
2013-03-13 12:41:00,37.0,-4.1,27.17,North,0,0.0,0.0,17,0.00,NA,NA,-99.99,wxupload 3.5,2013-03-13 16:41:00,
2013-03-13 12:48:00,36.7,-4.4,27.17,North,0,0.0,0.0,17,0.00,NA,NA,-99.99,wxupload 3.5,2013-03-13 16:48:00,
2013-03-13 12:54:00,36.5,-4.5,27.17,North,0,0.0,0.0,17,0.00,NA,NA,-99.99,wxupload 3.5,2013-03-13 16:54:00,
2013-03-13 13:00:00,36.5,-4.5,27.17,North,0,0.0,0.0,17,0.00,NA,NA,-99.99,wxupload 3.5,2013-03-13 17:00:00,
2013-03-13 13:06:00,36.7,-4.4,27.17,North,0,0.0,0.0,17,0.00,NA,NA,-99.99,wxupload 3.5,2013-03-13 17:06:00,
2013-03-13 13:11:00,37.6,-4.9,27.17,North,0,0.0,0.0,16,0.00,NA,NA,-99.99,wxupload 3.5,2013-03-13 17:11:00,
2013-03-13 13:18:00,37.9,-4.6,27.17,North,0,0.0,0.0,16,0.00,NA,NA,-99.99,wxupload 3.5,2013-03-13 17:18:00,
2013-03-13 13:24:00,37.4,-5.1,27.17,North,0,0.0,0.0,16,0.00,NA,NA,-99.99,wxupload 3.5,2013-03-13 17:24:00,
2013-03-13 13:29:00,37.2,-3.9,27.17,North,0,0.0,0.0,17,0.00,NA,NA,-99.99,wxupload 3.5,2013-03-13 17:29:00,
2013-03-13 13:36:00,37.6,-4.9,27.17,North,0,0.0,0.0,16,0.00,NA,NA,-99.99,wxupload 3.5,2013-03-13 17:36:00,
2013-03-13 13:42:00,37.4,-5.1,27.17,North,0,0.0,0.0,16,0.00,NA,NA,-99.99,wxupload 3.5,2013-03-13 17:42:00,
2013-03-13 13:48:00,37.4,-5.1,27.17,North,0,0.0,0.0,16,0.00,NA,NA,-99.99,wxupload 3.5,2013-03-13 17:48:00,
2013-03-13 13:54:00,37.6,-4.9,27.17,North,0,0.0,0.0,16,0.00,NA,NA,-99.99,wxupload 3.5,2013-03-13 17:54:00,
2013-03-13 14:00:00,38.1,-4.5,27.17,North,0,0.0,0.0,16,0.00,NA,NA,-99.99,wxupload 3.5,2013-03-13 18:00:00,
2013-03-13 14:08:00,38.1,-4.5,27.17,North,0,0.0,0.0,16,0.00,NA,NA,-99.99,wxupload 3.5,2013-03-13 18:08:00,
2013-03-13 14:14:00,37.8,-4.8,27.17,North,0,0.0,0.0,16,0.00,NA,NA,-99.99,wxupload 3.5,2013-03-13 18:14:00,
2013-03-13 14:20:00,37.4,-5.1,27.17,North,0,0.0,0.0,16,0.00,NA,NA,-99.99,wxupload 3.5,2013-03-13 18:20:00,
2013-03-13 14:25:00,37.2,-3.9,27.17,North,0,0.0,0.0,17,0.00,NA,NA,-99.99,wxupload 3.5,2013-03-13 18:25:00,
2013-03-13 14:32:00,37.9,-4.6,27.17,North,0,0.0,0.0,16,0.00,NA,NA,-99.99,wxupload 3.5,2013-03-13 18:32:00,
2013-03-13 14:38:00,38.5,-4.2,27.17,North,0,0.0,0.0,16,0.00,NA,NA,-99.99,wxupload 3.5,2013-03-13 18:38:00,
2013-03-13 14:43:00,38.7,-4.0,27.17,North,0,0.0,0.0,16,0.00,NA,NA,-99.99,wxupload 3.5,2013-03-13 18:43:00,
2013-03-13 14:50:00,39.2,-3.6,27.17,North,0,0.0,0.0,16,0.00,NA,NA,-99.99,wxupload 3.5,2013-03-13 18:50:00,
2013-03-13 14:56:00,38.7,-4.0,27.17,North,0,0.0,0.0,16,0.00,NA,NA,-99.99,wxupload 3.5,2013-03-13 18:56:00,
2013-03-13 15:02:00,37.2,-3.9,27.17,North,0,0.0,0.0,17,0.00,NA,NA,-99.99,wxupload 3.5,2013-03-13 19:02:00,
2013-03-13 15:08:00,35.8,-5.1,27.17,North,0,0.0,0.0,17,0.00,NA,NA,-99.99,wxupload 3.5,2013-03-13 19:08:00,
2013-03-13 15:13:00,34.2,-6.5,27.17,North,0,0.0,0.0,17,0.00,NA,NA,-99.99,wxupload 3.5,2013-03-13 19:13:00,
2013-03-13 15:20:00,33.4,-5.9,27.17,North,0,0.0,0.0,18,0.00,NA,NA,-99.99,wxupload 3.5,2013-03-13 19:20:00,
2013-03-13 15:26:00,33.1,-6.2,27.17,North,0,0.0,0.0,18,0.00,NA,NA,-99.99,wxupload 3.5,2013-03-13 19:26:00,
2013-03-13 15:34:00,33.1,-4.0,27.17,North,0,0.0,0.0,20,0.00,NA,NA,-99.99,wxupload 3.5,2013-03-13 19:34:00,
2013-03-13 15:39:00,33.3,-3.8,27.17,North,0,0.0,0.0,20,0.00,NA,NA,-99.99,wxupload 3.5,2013-03-13 19:39:00,
2013-03-13 15:48:00,33.6,-5.8,27.17,North,0,0.0,0.0,18,0.00,NA,NA,-99.99,wxupload 3.5,2013-03-13 19:48:00,
2013-03-13 15:53:00,33.8,-6.8,27.17,North,0,0.0,0.0,17,0.00,NA,NA,-99.99,wxupload 3.5,2013-03-13 19:53:00,
2013-03-13 16:00:00,34.2,-6.5,27.17,North,0,0.0,0.0,17,0.00,NA,NA,-99.99,wxupload 3.5,2013-03-13 20:00:00,
2013-03-13 16:05:00,34.0,-6.7,27.17,North,0,0.0,0.0,17,0.00,NA,NA,-99.99,wxupload 3.5,2013-03-13 20:05:00,
2013-03-13 16:12:00,33.6,-5.8,27.17,North,0,0.0,0.0,18,0.00,NA,NA,-99.99,wxupload 3.5,2013-03-13 20:12:00,
2013-03-13 16:18:00,33.3,-6.1,27.17,North,0,0.0,0.0,18,0.00,NA,NA,-99.99,wxupload 3.5,2013-03-13 20:18:00,
2013-03-13 16:23:00,33.1,-6.2,27.17,North,0,0.0,0.0,18,0.00,NA,NA,-99.99,wxupload 3.5,2013-03-13 20:23:00,
2013-03-13 16:30:00,32.9,-6.4,27.17,North,0,0.0,0.0,18,0.00,NA,NA,-99.99,wxupload 3.5,2013-03-13 20:30:00,
2013-03-13 16:36:00,32.7,-6.5,27.17,North,0,0.0,0.0,18,0.00,NA,NA,-99.99,wxupload 3.5,2013-03-13 20:36:00,
2013-03-13 16:42:00,32.0,-7.1,27.17,North,0,0.0,0.0,18,0.00,NA,NA,-99.99,wxupload 3.5,2013-03-13 20:42:00,
2013-03-13 16:48:00,31.3,-5.5,27.17,North,0,0.0,0.0,20,0.00,NA,NA,-99.99,wxupload 3.5,2013-03-13 20:48:00,
2013-03-13 16:53:00,30.6,-6.1,27.17,North,0,0.0,0.0,20,0.00,NA,NA,-99.99,wxupload 3.5,2013-03-13 20:53:00,
2013-03-13 17:00:00,30.2,-3.5,27.17,North,0,0.0,0.0,23,0.00,NA,NA,-99.99,wxupload 3.5,2013-03-13 21:00:00,
2013-03-13 17:06:00,30.0,-1.9,27.17,North,0,0.0,0.0,25,0.00,NA,NA,-99.99,wxupload 3.5,2013-03-13 21:06:00,
2013-03-13 17:11:00,29.8,0.4,27.17,North,0,0.0,0.0,28,0.00,NA,NA,-99.99,wxupload 3.5,2013-03-13 21:11:00,
2013-03-13 17:18:00,29.8,0.4,27.17,North,0,0.0,0.0,28,0.00,NA,NA,-99.99,wxupload 3.5,2013-03-13 21:18:00,
2013-03-13 17:24:00,29.8,1.9,27.17,North,0,0.0,0.0,30,0.00,NA,NA,-99.99,wxupload 3.5,2013-03-13 21:24:00,
2013-03-13 17:30:00,29.7,1.8,27.17,North,0,0.0,0.0,30,0.00,NA,NA,-99.99,wxupload 3.5,2013-03-13 21:30:00,
2013-03-13 17:37:00,29.5,1.6,27.17,North,0,0.0,0.0,30,0.00,NA,NA,-99.99,wxupload 3.5,2013-03-13 21:37:00,
2013-03-13 17:44:00,29.3,1.5,27.17,North,0,0.0,0.0,30,0.00,NA,NA,-99.99,wxupload 3.5,2013-03-13 21:44:00,
2013-03-13 17:50:00,29.1,1.3,27.17,North,0,0.0,0.0,30,0.00,NA,NA,-99.99,wxupload 3.5,2013-03-13 21:50:00,
2013-03-13 17:55:00,29.1,1.3,27.17,North,0,0.0,0.0,30,0.00,NA,NA,-99.99,wxupload 3.5,2013-03-13 21:55:00,
2013-03-13 18:02:00,29.3,2.2,27.17,North,0,0.0,0.0,31,0.00,NA,NA,-99.99,wxupload 3.5,2013-03-13 22:02:00,
2013-03-13 18:08:00,28.9,-2.8,27.17,North,0,0.0,0.0,25,0.00,NA,NA,-99.99,wxupload 3.5,2013-03-13 22:08:00,
2013-03-13 18:14:00,28.6,-4.9,27.17,North,0,0.0,0.0,23,0.00,NA,NA,-99.99,wxupload 3.5,2013-03-13 22:14:00,
2013-03-13 18:20:00,28.4,-7.0,27.17,North,0,0.0,0.0,21,0.00,NA,NA,-99.99,wxupload 3.5,2013-03-13 22:20:00,
2013-03-13 18:25:00,28.2,-7.1,27.17,North,0,0.0,0.0,21,0.00,NA,NA,-99.99,wxupload 3.5,2013-03-13 22:25:00,
2013-03-13 18:34:00,27.9,-10.6,27.17,North,0,0.0,0.0,18,0.00,NA,NA,-99.99,wxupload 3.5,2013-03-13 22:34:00,
2013-03-13 18:39:00,27.7,-10.8,27.17,North,0,0.0,0.0,18,0.00,NA,NA,-99.99,wxupload 3.5,2013-03-13 22:39:00,
2013-03-13 18:47:00,27.5,-7.7,27.17,North,0,0.0,0.0,21,0.00,NA,NA,-99.99,wxupload 3.5,2013-03-13 22:47:00,
2013-03-13 18:54:00,27.3,-11.1,27.17,North,0,0.0,0.0,18,0.00,NA,NA,-99.99,wxupload 3.5,2013-03-13 22:54:00,
2013-03-13 19:00:00,27.3,-11.1,27.17,North,0,0.0,0.0,18,0.00,NA,NA,-99.99,wxupload 3.5,2013-03-13 23:00:00,
2013-03-13 19:05:00,27.0,-11.4,27.17,North,0,0.0,0.0,18,0.00,NA,NA,-99.99,wxupload 3.5,2013-03-13 23:05:00,
2013-03-13 19:12:00,26.8,-11.6,27.17,North,0,0.0,0.0,18,0.00,NA,NA,-99.99,wxupload 3.5,2013-03-13 23:12:00,
2013-03-13 19:18:00,26.6,-10.6,27.17,North,0,0.0,0.0,19,0.00,NA,NA,-99.99,wxupload 3.5,2013-03-13 23:18:00,
2013-03-13 19:24:00,26.2,-10.9,27.17,North,0,0.0,0.0,19,0.00,NA,NA,-99.99,wxupload 3.5,2013-03-13 23:24:00,
2013-03-13 19:30:00,26.1,-11.1,27.17,North,0,0.0,0.0,19,0.00,NA,NA,-99.99,wxupload 3.5,2013-03-13 23:30:00,
2013-03-13 19:35:00,25.9,-11.2,27.17,North,0,0.0,0.0,19,0.00,NA,NA,-99.99,wxupload 3.5,2013-03-13 23:35:00,
2013-03-13 19:42:00,25.9,-11.2,27.17,North,0,0.0,0.0,19,0.00,NA,NA,-99.99,wxupload 3.5,2013-03-13 23:42:00,
2013-03-13 19:48:00,25.7,-11.4,27.17,North,0,0.0,0.0,19,0.00,NA,NA,-99.99,wxupload 3.5,2013-03-13 23:48:00,
2013-03-13 19:53:00,25.7,-11.4,27.17,North,0,0.0,0.0,19,0.00,NA,NA,-99.99,wxupload 3.5,2013-03-13 23:53:00,
2013-03-13 20:00:00,25.7,-11.4,27.17,North,0,0.0,0.0,19,0.00,NA,NA,-99.99,wxupload 3.5,2013-03-14 00:00:00,
2013-03-13 20:06:00,25.7,-11.4,27.17,North,0,0.0,0.0,19,0.00,NA,NA,-99.99,wxupload 3.5,2013-03-14 00:06:00,
2013-03-13 20:12:00,25.5,-11.5,27.17,North,0,0.0,0.0,19,0.00,NA,NA,-99.99,wxupload 3.5,2013-03-14 00:12:00,
2013-03-13 20:18:00,25.3,-11.7,27.17,North,0,0.0,0.0,19,0.00,NA,NA,-99.99,wxupload 3.5,2013-03-14 00:18:00,
2013-03-13 20:23:00,25.3,-11.7,27.17,North,0,0.0,0.0,19,0.00,NA,NA,-99.99,wxupload 3.5,2013-03-14 00:23:00,
2013-03-13 20:30:00,25.2,-11.8,27.17,North,0,0.0,0.0,19,0.00,NA,NA,-99.99,wxupload 3.5,2013-03-14 00:30:00,
2013-03-13 20:36:00,25.2,-11.8,27.17,North,0,0.0,0.0,19,0.00,NA,NA,-99.99,wxupload 3.5,2013-03-14 00:36:00,
2013-03-13 20:41:00,25.2,-11.8,27.17,North,0,0.0,0.0,19,0.00,NA,NA,-99.99,wxupload 3.5,2013-03-14 00:41:00,
2013-03-13 20:48:00,25.3,-11.7,27.17,North,0,0.0,0.0,19,0.00,NA,NA,-99.99,wxupload 3.5,2013-03-14 00:48:00,
2013-03-13 20:54:00,25.3,-11.7,27.17,North,0,0.0,0.0,19,0.00,NA,NA,-99.99,wxupload 3.5,2013-03-14 00:54:00,
2013-03-13 20:59:00,24.8,-12.1,27.17,North,0,0.0,0.0,19,0.00,NA,NA,-99.99,wxupload 3.5,2013-03-14 00:59:00,
2013-03-13 21:07:00,24.3,-12.6,27.17,North,0,0.0,0.0,19,0.00,NA,NA,-99.99,wxupload 3.5,2013-03-14 01:07:00,
2013-03-13 21:14:00,24.1,-12.7,27.17,North,0,0.0,0.0,19,0.00,NA,NA,-99.99,wxupload 3.5,2013-03-14 01:14:00,
2013-03-13 21:20:00,23.9,-12.9,27.17,North,0,0.0,0.0,19,0.00,NA,NA,-99.99,wxupload 3.5,2013-03-14 01:20:00,
2013-03-13 21:25:00,24.1,-12.7,27.17,North,0,0.0,0.0,19,0.00,NA,NA,-99.99,wxupload 3.5,2013-03-14 01:25:00,
2013-03-13 21:32:00,24.3,-12.6,27.17,North,0,0.0,0.0,19,0.00,NA,NA,-99.99,wxupload 3.5,2013-03-14 01:32:00,
2013-03-13 21:38:00,24.3,-12.6,27.17,North,0,0.0,0.0,19,0.00,NA,NA,-99.99,wxupload 3.5,2013-03-14 01:38:00,
2013-03-13 21:43:00,23.9,-9.9,27.17,North,0,0.0,0.0,22,0.00,NA,NA,-99.99,wxupload 3.5,2013-03-14 01:43:00,
2013-03-13 21:50:00,23.9,-9.9,27.17,North,0,0.0,0.0,22,0.00,NA,NA,-99.99,wxupload 3.5,2013-03-14 01:50:00,
2013-03-13 21:55:00,23.9,-8.1,27.17,North,0,0.0,0.0,24,0.00,NA,NA,-99.99,wxupload 3.5,2013-03-14 01:55:00,
2013-03-13 22:02:00,23.9,-9.9,27.17,North,0,0.0,0.0,22,0.00,NA,NA,-99.99,wxupload 3.5,2013-03-14 02:02:00,
2013-03-13 22:08:00,24.1,-9.7,27.17,North,0,0.0,0.0,22,0.00,NA,NA,-99.99,wxupload 3.5,2013-03-14 02:08:00,
2013-03-13 22:13:00,24.1,-9.7,27.17,North,0,0.0,0.0,22,0.00,NA,NA,-99.99,wxupload 3.5,2013-03-14 02:13:00,
2013-03-13 22:20:00,24.1,-9.7,27.17,North,0,0.0,0.0,22,0.00,NA,NA,-99.99,wxupload 3.5,2013-03-14 02:20:00,
2013-03-13 22:26:00,23.9,-9.9,27.17,North,0,0.0,0.0,22,0.00,NA,NA,-99.99,wxupload 3.5,2013-03-14 02:26:00,
2013-03-13 22:31:00,23.7,-10.0,27.17,North,0,0.0,0.0,22,0.00,NA,NA,-99.99,wxupload 3.5,2013-03-14 02:31:00,
2013-03-13 22:38:00,23.5,-10.2,27.17,North,0,0.0,0.0,22,0.00,NA,NA,-99.99,wxupload 3.5,2013-03-14 02:38:00,
2013-03-13 22:44:00,23.4,-10.3,27.17,North,0,0.0,0.0,22,0.00,NA,NA,-99.99,wxupload 3.5,2013-03-14 02:44:00,
2013-03-13 22:50:00,23.2,-10.5,27.17,North,0,0.0,0.0,22,0.00,NA,NA,-99.99,wxupload 3.5,2013-03-14 02:50:00,
2013-03-13 22:57:00,23.2,-10.5,27.17,North,0,0.0,0.0,22,0.00,NA,NA,-99.99,wxupload 3.5,2013-03-14 02:57:00,
2013-03-13 23:04:00,23.2,-10.5,27.17,North,0,0.0,0.0,22,0.00,NA,NA,-99.99,wxupload 3.5,2013-03-14 03:04:00,
2013-03-13 23:10:00,23.2,-10.5,27.17,North,0,0.0,0.0,22,0.00,NA,NA,-99.99,wxupload 3.5,2013-03-14 03:10:00,
2013-03-13 23:15:00,23.2,-10.5,27.17,North,0,0.0,0.0,22,0.00,NA,NA,-99.99,wxupload 3.5,2013-03-14 03:15:00,
2013-03-13 23:22:00,23.2,-13.5,27.17,North,0,0.0,0.0,19,0.00,NA,NA,-99.99,wxupload 3.5,2013-03-14 03:22:00,
2013-03-13 23:28:00,23.4,-13.4,27.17,North,0,0.0,0.0,19,0.00,NA,NA,-99.99,wxupload 3.5,2013-03-14 03:28:00,
2013-03-13 23:34:00,23.5,-13.2,27.17,North,0,0.0,0.0,19,0.00,NA,NA,-99.99,wxupload 3.5,2013-03-14 03:34:00,
2013-03-13 23:40:00,23.5,-13.2,27.17,North,0,0.0,0.0,19,0.00,NA,NA,-99.99,wxupload 3.5,2013-03-14 03:40:00,
2013-03-13 23:45:00,23.7,-13.1,27.17,North,0,0.0,0.0,19,0.00,NA,NA,-99.99,wxupload 3.5,2013-03-14 03:45:00,
2013-03-13 23:52:00,23.7,-13.1,27.17,North,0,0.0,0.0,19,0.00,NA,NA,-99.99,wxupload 3.5,2013-03-14 03:52:00,
2013-03-13 23:58:00,23.7,-13.1,27.17,North,0,0.0,0.0,19,0.00,NA,NA,-99.99,wxupload 3.5,2013-03-14 03:58:00,